Regional Weather Roundup
Issued by NWS

Home | Current Version | Previous Version | Text Only | Print | Product List | Glossary On
Versions: 1 2 3 4 5 6 7 8 9 10 11 12 13 14 15 16 17 18 19 20 21 22 23 24 25 26 27 28 29 30 31 32 33 34 35 36 37 38 39 40 41 42 43 44 45 46 47 48 49 50
000
ASUS45 KABQ 270510
RWRNM
NEW MEXICO REGIONAL WEATHER ROUNDUP
NATIONAL WEATHER SERVICE ALBUQUERQUE NM
1100 PM MDT FRI AUG 26 2016

NOTE: "FAIR" MEANS FEW OR NO CLOUDS BELOW 12,000 FEET AGL WITH NO
       SIGNIFICANT WEATHER OR OBSTRUCTIONS TO VISION.

      THIS PRODUCT IS RELEASED AS TWO VERSIONS.  ONE VERSION NEAR
      THE TOP OF THE HOUR CONTAINING PRELIMINARY DATA FROM ALBUQUERQUE
      AND OTHER STATIONS.  A FINAL VERSION WITH ADDITIONAL DATA IS
      ISSUED ABOUT 10 MINUTES AFTER THE HOUR.

NMZ501-503-504-510>518-270600-
NORTHWEST PLATEAU/NORTHCENTRAL MOUNTAINS

CITY           SKY/WX    TMP DP  RH WIND       PRES   REMARKS
FARMINGTON     FAIR      67  43  41 NE5       30.16R
LOS ALAMOS     FAIR      61  45  56 SW6       30.29S
SANTA FE       FAIR      63  51  65 SE8       30.23R
TAOS           FAIR      54  43  66 NE8       30.28S
ANGEL FIRE     FAIR      42  40  92 CALM      30.37S

$$
NMZ402-403-502-505>509-270600-
WESTCENTRAL MOUNTAINS/SOUTHWEST MOUNTAINS

CITY           SKY/WX    TMP DP  RH WIND       PRES   REMARKS
GALLUP         CLOUDY    58  43  57 CALM      30.24R
GRANTS         CLOUDY    59  47  64 CALM      30.26F
SILVER CITY    FAIR      62  56  82 N5        30.19S

$$
NMZ407-409-411-412-270600-
SOUTHERN DESERTS

CITY           SKY/WX    TMP DP  RH WIND       PRES   REMARKS
DEMING         FAIR      70  55  59 CALM      30.12R
LAS CRUCES     FAIR      71  55  56 NE6       30.16R
ALAMOGORDO     MOCLDY    64  57  77 CALM      30.11F
T OR C         FAIR      70  54  56 W9        30.15S

$$
NMZ519>523-270600-
CENTRAL VALLEYS/CENTRAL HIGHLANDS

CITY           SKY/WX    TMP DP  RH WIND       PRES   REMARKS
ALBUQUERQUE    FAIR      68  47  46 E8        30.17R
DOUBLE EAGLE   FAIR      59  48  66 SW3       30.20S
MORIARTY ARPT  FAIR      56  50  79 CALM      30.25S
CLINES CORNERS FAIR      55  47  74 S7        30.29S
BELEN          FAIR      66  45  46 CALM      30.16S
SOCORRO        FAIR      69  49  49 N7        30.14R

$$
NMZ524>526-539-540-270600-
SOUTHCENTRAL MOUNTAINS

CITY           SKY/WX    TMP DP  RH WIND       PRES   REMARKS
RUIDOSO          N/A     57  48  72 CALM      30.30F

$$
NMZ527>531-270600-
NORTHEAST HIGHLANDS/NORTHEAST PLAINS

CITY           SKY/WX    TMP DP  RH WIND       PRES   REMARKS
LAS VEGAS      FAIR      54  51  90 SW12      30.27F
RATON          FAIR      54  49  83 N7        30.21R
CLAYTON        FAIR      59  56  89 S7        30.16R

$$
NMZ532>537-270600-
EASTCENTRAL PLAINS

CITY           SKY/WX    TMP DP  RH WIND       PRES   REMARKS
TUCUMCARI      FAIR      68  59  73 S9        30.10F
CANNON AFB     MOCLDY    65  65 100 SE14      30.16S THUNDER
CLOVIS AIRPORT MOCLDY    63  57  82 S9        30.16S

$$
NMZ028-029-538-270600-
SOUTHEAST PLAINS

CITY           SKY/WX    TMP DP  RH WIND       PRES   REMARKS
ROSWELL        FAIR      69  60  73 S7        30.10R
ARTESIA        FAIR      70  66  88 SE3       30.10S
CARLSBAD       FAIR      72  64  76 S9        30.07S
HOBBS          FAIR      66  66 100 SE5       30.13F


$$



USA.gov is the U.S. government's official web portal to all federal, state and local government web resources and services.